一网星座-0540星 (ONEWEB-0540 )

导读

ONEWEB-0540是英国OneWeb公司的低轨宽带通信卫星,于2022年12月8日发射入轨,属于OneWeb全球低轨卫星星座组网卫星。该卫星运行于1200公里近地轨道,配备Ku和Ka波段天线,采用氙等离子体推力器,面向航空、海事、应急通信等场景提供低时延宽带服务,助力实现全球无缝网络覆盖。

Basic Information
目录编号:
54645
目录名称:
ONEWEB-0540
国际标识:
2022-166D
轨道中心:
EARTH
卫星名称:
一网星座-0540星
卫星全名:
一网星座-0540星 (ONEWEB-0540 )
卫星状态:
在轨 (已飞行1374 天)
发射日期:
2022-12-08 UTC
国别 :
英国 (GB)
星等 :
--
This satellite is enrolled in the Space Conjunction Data Service (SCDS) and the current flight risk assessment level is: No High Risk
Orbit Information
数据来源 国际轨道数据 AOE轨道数据
星历时间 2026-09-12T05:28:11+0800
8小时前
查看轨道信息
2026-09-10T07:00:00+0800
2天前
查看轨道信息
半长轴 7555.9km 7555.89km
偏心率 0.0002086 0.0002908
轨道倾角 87.926° 87.921°
近地点辐角 85.285° 73.353°
升交点赤经 226.739° 227.125°
平近点角 274.852° 78.384°
近地点 1176.186km 1175.555km
远地点 1179.34km 1179.951km
周期 108.940分钟 108.940分钟
每日圈数 13.218236 13.218261
Detailed Information
平衡模式:
三轴稳定
覆盖范围:
全球
运营商:
一网卫星公司
运营商所在国:
英国
制造商(研发单位):
一网卫星公司
制造商所在国:
英国
使用方式:
暂无
Satellite Introduction
OneWeb卫星网络由648颗重约125公斤的微型卫星组成,运行在1200公里的轨道上。 每颗卫星都能够提供至少每秒8千兆位的吞吐量,以使用其高吞吐量的Ku频段有效载荷为家庭和移动平台提供互联网接入。该卫星仍在工作。
2D Orbit Map
3D Orbit Map
Orbit Altitude Analysis Chart
Orbit Inclination Analysis Chart
Orbit Comprehensive Analysis Chart
View Comprehensive Chart
Conjunction Data List
Event ID Objects TCA Miss Dist (km) Collision Risk Probability Collision Risk Index (CRI) Action
CDM_260912-131504-534805-464523
2026-09-12T
13:15:57+0000
2.277 km
极远距离
2.043956E-6 低风险 0.41
Miss Distance Evolution Trend with All Objects
Collision Probability Evolution Trend with All Objects